Time,TemperatureF,DewpointF,PressureIn,WindDirection,WindDirectionDegrees,WindSpeedMPH,WindSpeedGustMPH,Humidity,HourlyPrecipIn,Conditions,Clouds,dailyrainin,SolarRadiationWatts/m^2,SoftwareType,DateUTC
2013-03-06 00:22:00,21.0,14.0,-100.00,NNW,328,2.0,5.0,73,0.00,,,0.00,0.000000,,2013-03-06 07:22:00,
2013-03-06 00:32:00,21.0,14.0,-100.00,NNW,328,2.0,5.0,73,0.00,,,0.00,0.000000,,2013-03-06 07:32:00,
2013-03-06 00:42:00,21.0,14.0,-100.00,NNW,328,2.0,5.0,73,0.00,,,0.00,0.000000,,2013-03-06 07:42:00,
2013-03-06 00:52:00,21.0,14.0,-100.00,NNW,328,2.0,5.0,73,0.00,,,0.00,0.000000,,2013-03-06 07:52:00,
2013-03-06 01:21:00,21.0,13.0,-100.00,East,93,1.0,3.0,71,0.00,,,0.00,0.000000,,2013-03-06 08:21:00,
2013-03-06 01:32:00,21.0,13.0,-100.00,East,93,1.0,3.0,71,0.00,,,0.00,0.000000,,2013-03-06 08:32:00,
2013-03-06 01:42:00,21.0,13.0,-100.00,East,93,1.0,3.0,71,0.00,,,0.00,0.000000,,2013-03-06 08:42:00,
2013-03-06 01:52:00,21.0,13.0,-100.00,East,93,1.0,3.0,71,0.00,,,0.00,0.000000,,2013-03-06 08:52:00,
2013-03-06 02:21:00,21.0,14.0,-100.00,NW,315,1.0,3.0,73,0.00,,,0.00,0.000000,,2013-03-06 09:21:00,
2013-03-06 02:32:00,21.0,14.0,-100.00,NW,315,1.0,3.0,73,0.00,,,0.00,0.000000,,2013-03-06 09:32:00,
2013-03-06 02:42:00,21.0,14.0,-100.00,NW,315,1.0,3.0,73,0.00,,,0.00,0.000000,,2013-03-06 09:42:00,
2013-03-06 02:51:00,21.0,14.0,-100.00,NW,315,1.0,3.0,73,0.00,,,0.00,0.000000,,2013-03-06 09:51:00,
2013-03-06 03:22:00,22.0,13.0,-100.00,NNE,26,2.0,6.0,68,0.00,,,0.00,0.000000,,2013-03-06 10:22:00,
2013-03-06 03:32:00,22.0,13.0,-100.00,NNE,26,2.0,6.0,68,0.00,,,0.00,0.000000,,2013-03-06 10:32:00,
2013-03-06 03:42:00,22.0,13.0,-100.00,NNE,26,2.0,6.0,68,0.00,,,0.00,0.000000,,2013-03-06 10:42:00,
2013-03-06 03:52:00,22.0,13.0,-100.00,NNE,26,2.0,6.0,68,0.00,,,0.00,0.000000,,2013-03-06 10:52:00,
2013-03-06 04:22:00,24.0,14.0,-100.00,ESE,114,2.0,6.0,65,0.00,,,0.00,0.000000,,2013-03-06 11:22:00,
2013-03-06 04:32:00,24.0,14.0,-100.00,ESE,114,2.0,6.0,65,0.00,,,0.00,0.000000,,2013-03-06 11:32:00,
2013-03-06 04:42:00,24.0,14.0,-100.00,ESE,114,2.0,6.0,65,0.00,,,0.00,0.000000,,2013-03-06 11:42:00,
2013-03-06 04:52:00,24.0,14.0,-100.00,ESE,114,2.0,6.0,65,0.00,,,0.00,0.000000,,2013-03-06 11:52:00,
2013-03-06 05:22:00,25.0,13.0,-100.00,NNE,33,3.0,10.0,59,0.00,,,0.00,0.000000,,2013-03-06 12:22:00,
2013-03-06 05:33:00,25.0,13.0,-100.00,NNE,33,3.0,10.0,59,0.00,,,0.00,0.000000,,2013-03-06 12:33:00,
2013-03-06 05:42:00,25.0,13.0,-100.00,NNE,33,3.0,10.0,59,0.00,,,0.00,0.000000,,2013-03-06 12:42:00,
2013-03-06 05:52:00,25.0,13.0,-100.00,NNE,33,3.0,10.0,59,0.00,,,0.00,0.000000,,2013-03-06 12:52:00,
2013-03-06 06:22:00,28.0,14.0,-100.00,NW,321,4.0,8.0,55,0.00,,,0.00,0.000000,,2013-03-06 13:22:00,
2013-03-06 06:32:00,28.0,14.0,-100.00,NW,321,4.0,8.0,55,0.00,,,0.00,0.000000,,2013-03-06 13:32:00,
2013-03-06 06:42:00,28.0,14.0,-100.00,NW,321,4.0,8.0,55,0.00,,,0.00,0.000000,,2013-03-06 13:42:00,
2013-03-06 06:52:00,28.0,14.0,-100.00,NW,321,4.0,8.0,55,0.00,,,0.00,0.000000,,2013-03-06 13:52:00,
2013-03-06 07:22:00,31.0,12.0,-100.00,North,351,4.0,9.0,44,0.00,,,0.00,21.000000,,2013-03-06 14:22:00,
2013-03-06 07:32:00,31.0,12.0,-100.00,North,351,4.0,9.0,44,0.00,,,0.00,21.000000,,2013-03-06 14:32:00,
2013-03-06 07:42:00,31.0,12.0,-100.00,North,351,4.0,9.0,44,0.00,,,0.00,21.000000,,2013-03-06 14:42:00,
2013-03-06 07:52:00,31.0,12.0,-100.00,North,351,4.0,9.0,44,0.00,,,0.00,21.000000,,2013-03-06 14:52:00,
2013-03-06 08:22:00,43.0,18.0,-100.00,ESE,107,2.0,8.0,36,0.00,,,0.00,172.000000,,2013-03-06 15:22:00,
2013-03-06 08:32:00,43.0,18.0,-100.00,ESE,107,2.0,8.0,36,0.00,,,0.00,172.000000,,2013-03-06 15:32:00,
2013-03-06 08:42:00,43.0,18.0,-100.00,ESE,107,2.0,8.0,36,0.00,,,0.00,172.000000,,2013-03-06 15:42:00,
2013-03-06 08:52:00,43.0,18.0,-100.00,ESE,107,2.0,8.0,36,0.00,,,0.00,172.000000,,2013-03-06 15:52:00,
2013-03-06 09:21:00,37.0,20.0,-100.00,SSE,163,2.0,13.0,49,0.00,,,0.00,356.000000,,2013-03-06 16:21:00,
2013-03-06 09:32:00,37.0,20.0,-100.00,SSE,163,2.0,13.0,49,0.00,,,0.00,356.000000,,2013-03-06 16:32:00,
2013-03-06 09:42:00,37.0,20.0,-100.00,SSE,163,2.0,13.0,49,0.00,,,0.00,356.000000,,2013-03-06 16:42:00,
2013-03-06 09:52:00,37.0,20.0,-100.00,SSE,163,2.0,13.0,49,0.00,,,0.00,356.000000,,2013-03-06 16:52:00,
2013-03-06 10:22:00,44.0,19.0,-100.00,South,191,3.0,7.0,37,0.00,,,0.00,449.000000,,2013-03-06 17:22:00,
2013-03-06 10:32:00,44.0,19.0,-100.00,South,191,3.0,7.0,37,0.00,,,0.00,449.000000,,2013-03-06 17:32:00,
2013-03-06 10:42:00,44.0,19.0,-100.00,South,191,3.0,7.0,37,0.00,,,0.00,449.000000,,2013-03-06 17:42:00,
2013-03-06 10:52:00,44.0,19.0,-100.00,South,191,3.0,7.0,37,0.00,,,0.00,449.000000,,2013-03-06 17:52:00,
2013-03-06 11:28:00,50.0,22.0,-100.00,South,169,3.0,7.0,33,0.00,,,0.00,594.000000,,2013-03-06 18:28:00,
2013-03-06 11:42:00,50.0,22.0,-100.00,South,169,3.0,7.0,33,0.00,,,0.00,594.000000,,2013-03-06 18:42:00,
2013-03-06 11:52:00,50.0,22.0,-100.00,South,169,3.0,7.0,33,0.00,,,0.00,594.000000,,2013-03-06 18:52:00,
2013-03-06 12:22:00,49.0,21.0,-100.00,SE,146,8.0,12.0,33,0.00,,,0.00,729.000000,,2013-03-06 19:22:00,
2013-03-06 12:32:00,49.0,21.0,-100.00,SE,146,8.0,12.0,33,0.00,,,0.00,729.000000,,2013-03-06 19:32:00,
2013-03-06 12:43:00,49.0,21.0,-100.00,SE,146,8.0,12.0,33,0.00,,,0.00,729.000000,,2013-03-06 19:43:00,
2013-03-06 12:52:00,49.0,21.0,-100.00,SE,146,8.0,12.0,33,0.00,,,0.00,729.000000,,2013-03-06 19:52:00,
2013-03-06 13:22:00,52.0,14.0,-100.00,SSE,152,6.0,12.0,22,0.00,,,0.00,744.000000,,2013-03-06 20:22:00,
2013-03-06 13:32:00,52.0,14.0,-100.00,SSE,152,6.0,12.0,22,0.00,,,0.00,744.000000,,2013-03-06 20:32:00,
2013-03-06 13:42:00,52.0,14.0,-100.00,SSE,152,6.0,12.0,22,0.00,,,0.00,744.000000,,2013-03-06 20:42:00,
2013-03-06 13:52:00,52.0,14.0,-100.00,SSE,152,6.0,12.0,22,0.00,,,0.00,744.000000,,2013-03-06 20:52:00,
2013-03-06 14:22:00,53.0,17.0,-100.00,South,172,7.0,12.0,24,0.00,,,0.00,691.000000,,2013-03-06 21:22:00,
2013-03-06 14:32:00,53.0,17.0,-100.00,South,172,7.0,12.0,24,0.00,,,0.00,691.000000,,2013-03-06 21:32:00,
2013-03-06 14:42:00,53.0,17.0,-100.00,South,172,7.0,12.0,24,0.00,,,0.00,691.000000,,2013-03-06 21:42:00,
2013-03-06 14:51:00,53.0,17.0,-100.00,South,172,7.0,12.0,24,0.00,,,0.00,691.000000,,2013-03-06 21:51:00,
2013-03-06 15:22:00,51.0,16.0,-100.00,SSE,165,10.0,15.0,24,0.00,,,0.00,504.000000,,2013-03-06 22:22:00,
2013-03-06 15:32:00,51.0,16.0,-100.00,SSE,165,10.0,15.0,24,0.00,,,0.00,504.000000,,2013-03-06 22:32:00,
2013-03-06 15:42:00,51.0,16.0,-100.00,SSE,165,10.0,15.0,24,0.00,,,0.00,504.000000,,2013-03-06 22:42:00,
2013-03-06 15:51:00,51.0,16.0,-100.00,SSE,165,10.0,15.0,24,0.00,,,0.00,504.000000,,2013-03-06 22:51:00,
2013-03-06 16:21:00,51.0,18.0,-100.00,SSE,160,13.0,20.0,27,0.00,,,0.00,415.000000,,2013-03-06 23:21:00,
2013-03-06 16:32:00,51.0,18.0,-100.00,SSE,160,13.0,20.0,27,0.00,,,0.00,415.000000,,2013-03-06 23:32:00,
2013-03-06 16:42:00,51.0,18.0,-100.00,SSE,160,13.0,20.0,27,0.00,,,0.00,415.000000,,2013-03-06 23:42:00,
2013-03-06 16:52:00,51.0,18.0,-100.00,SSE,160,13.0,20.0,27,0.00,,,0.00,415.000000,,2013-03-06 23:52:00,
2013-03-06 17:21:00,49.0,21.0,-100.00,SSE,149,8.0,17.0,33,0.00,,,0.00,217.000000,,2013-03-07 00:21:00,
2013-03-06 17:32:00,49.0,21.0,-100.00,SSE,149,8.0,17.0,33,0.00,,,0.00,217.000000,,2013-03-07 00:32:00,
2013-03-06 17:42:00,49.0,21.0,-100.00,SSE,149,8.0,17.0,33,0.00,,,0.00,217.000000,,2013-03-07 00:42:00,
2013-03-06 17:52:00,49.0,21.0,-100.00,SSE,149,8.0,17.0,33,0.00,,,0.00,217.000000,,2013-03-07 00:52:00,
2013-03-06 18:21:00,44.0,22.0,-100.00,East,95,3.0,13.0,42,0.00,,,0.00,45.000000,,2013-03-07 01:21:00,
2013-03-06 18:32:00,44.0,22.0,-100.00,East,95,3.0,13.0,42,0.00,,,0.00,45.000000,,2013-03-07 01:32:00,
2013-03-06 18:42:00,44.0,22.0,-100.00,East,95,3.0,13.0,42,0.00,,,0.00,45.000000,,2013-03-07 01:42:00,
2013-03-06 18:51:00,44.0,22.0,-100.00,East,95,3.0,13.0,42,0.00,,,0.00,45.000000,,2013-03-07 01:51:00,
2013-03-06 20:21:00,37.0,24.0,-100.00,North,356,3.0,6.0,60,-99.99,,,0.00,0.000000,,2013-03-07 03:21:00,
2013-03-06 20:32:00,37.0,24.0,-100.00,North,356,3.0,6.0,60,-99.99,,,0.00,0.000000,,2013-03-07 03:32:00,
2013-03-06 20:42:00,37.0,24.0,-100.00,North,356,3.0,6.0,60,-99.99,,,0.00,0.000000,,2013-03-07 03:42:00,
2013-03-06 20:52:00,37.0,24.0,-100.00,North,356,3.0,6.0,60,-99.99,,,0.00,0.000000,,2013-03-07 03:52:00,
2013-03-06 21:22:00,36.0,24.0,-100.00,NW,326,3.0,8.0,61,0.00,,,0.00,0.000000,,2013-03-07 04:22:00,
2013-03-06 21:32:00,36.0,24.0,-100.00,NW,326,3.0,8.0,61,0.00,,,0.00,0.000000,,2013-03-07 04:32:00,
2013-03-06 21:42:00,36.0,24.0,-100.00,NW,326,3.0,8.0,61,0.00,,,0.00,0.000000,,2013-03-07 04:42:00,
2013-03-06 21:51:00,36.0,24.0,-100.00,NW,326,3.0,8.0,61,0.00,,,0.00,0.000000,,2013-03-07 04:51:00,
2013-03-06 22:22:00,36.0,22.0,-100.00,NNW,340,3.0,8.0,57,0.00,,,0.00,0.000000,,2013-03-07 05:22:00,
2013-03-06 22:32:00,36.0,22.0,-100.00,NNW,340,3.0,8.0,57,0.00,,,0.00,0.000000,,2013-03-07 05:32:00,
2013-03-06 22:42:00,36.0,22.0,-100.00,NNW,340,3.0,8.0,57,0.00,,,0.00,0.000000,,2013-03-07 05:42:00,
2013-03-06 22:52:00,36.0,22.0,-100.00,NNW,340,3.0,8.0,57,0.00,,,0.00,0.000000,,2013-03-07 05:52:00,
2013-03-06 23:21:00,39.0,20.0,-100.00,NW,315,3.0,8.0,47,0.00,,,0.00,0.000000,,2013-03-07 06:21:00,
2013-03-06 23:32:00,39.0,20.0,-100.00,NW,315,3.0,8.0,47,0.00,,,0.00,0.000000,,2013-03-07 06:32:00,
2013-03-06 23:42:00,39.0,20.0,-100.00,NW,315,3.0,8.0,47,0.00,,,0.00,0.000000,,2013-03-07 06:42:00,
2013-03-06 23:51:00,39.0,20.0,-100.00,NW,315,3.0,8.0,47,0.00,,,0.00,0.000000,,2013-03-07 06:51:00,